www.pogodaiklimat.ru

Погода и климат >> Архив погоды >> Парагвай >> Encarnacion


ПОГОДА в Encarnacion

  • Прогноз погоды в Encarnacion
  • Монитор погоды в Encarnacion
  • Климат города

АРХИВ ПОГОДЫ в Encarnacion

Время (UTC), дата Ветер
(напр.,м/с)
 
Видим.   Явления Облачность Т
(С)
Тd
(С)
f
(%)
Тe
(С)
Тes
(С)
Комфортность P
(гПа)
Po
(гПа)
Тmin
(С)
Tmax
(С)
R
(мм)
R24
(мм)
S
(см)
03 16.06 Ю 4 20 км 8/0 2000 м
[Ac As]
+6.0 +3.6 85 +2 +2 1031.6 1006.5
09 16.06 ЮВ 3 20 км 6/0 2000 м
[Ac As]
+2.6 +1.0 89 -1 -1 1032.1 1006.6
12 16.06 ЮВ 4 20 км 3/0 2000 м
[Ac und]
+3.0 +2.4 96 -2 -1 1032.1 1006.7 +2.0
15 16.06 В 3 20 км ясно +10.0 +2.0 58 +8 +16 1031.5 1006.7
18 16.06 ЮВ 3 20 км ясно +13.8 -0.5 37 +13 +17 1030.6 1005.6
21 16.06 ЮВ 3 20 км ясно +12.0 -0.3 43 +11 +11 1029.8 1004.4
00 17.06 Ю 3 20 км ясно +7.6 +1.1 63 +5 +5 1028.9 1004.1 +15.0
03 17.06 ЮВ 3 20 км ясно +5.0 -0.3 69 +2 +2 1029.5 1004.4
06 17.06 штиль 0 20 км ясно +4.0 +1.4 83 +3 +3 1029.5 1004.4
09 17.06 штиль 0 20 км ясно +2.8 +1.0 88 +2 +2 1030.1 1004.8
12 17.06 штиль 0 20 км ясно +4.0 +1.4 83 +3 +5 1031.1 1005.8 +2.5
15 17.06 ЮВ 3 20 км ясно +11.0 +4.3 63 +10 +17 1032.1 1006.5
18 17.06 ЮВ 3 20 км ясно +14.6 +1.5 41 +14 +19 1029.1 1004.8
21 17.06 ЮВ 3 20 км ясно +15.4 +3.0 43 +15 +15 1028.8 1004.6
00 18.06 Ю 1 20 км ясно +10.8 +1.1 51 +11 +11 1028.5 1003.9 +16.0
03 18.06 ЮВ 1 20 км ясно +8.6 +2.4 65 +8 +8 1028.6 1003.9
06 18.06 ЮВ 1 20 км ясно +7.4 +2.1 69 +7 +7 1027.7 1002.8
09 18.06 ЮВ 1 20 км ясно +4.6 +3.0 89 +3 +3 1027.7 1002.5
12 18.06 В 1 20 км ясно +6.0 +0.6 68 +5 +7 1028.6 1003.5 +0.4
15 18.06 В 1 20 км ясно +16.0 +3.0 42 +17 +27 1027.8 1003.7
18 18.06 В 1 20 км ясно +20.4 +2.9 31 +22 +28 комфорт 1025.9 1002.1
21 18.06 ЮЗ 1 20 км ясно +18.6 +8.9 53 +20 +20 1025.0 1001.1
00 19.06 В 1 20 км ясно +14.6 +4.7 51 +15 +15 1025.3 1001.1 +21.0
06 19.06 В 1 20 км ясно +10.4 +7.9 84 +10 +10 1025.9 1001.3
09 19.06 В 1 20 км ясно +11.2 +7.0 75 +11 +11 1024.3 999.8
12 19.06 В 4 20 км ясно +14.0 +9.9 76 +13 +14 1025.1 1000.8 +6.0
15 19.06 СВ 3 20 км ясно +19.6 +10.8 57 +21 +29 комфорт 1023.2 999.5
18 19.06 СВ 3 20 км 1/0
[Cs]
+24.4 +5.6 30 +24 +29 комфорт 1020.5 997.2
21 19.06 СВ 2 20 км 5/0
[Ci]
+25.4 +3.9 25 +25 +25 комфорт 1020.3 997.0
00 20.06 В 2 20 км 3/0
[Ci]
+20.4 +10.1 52 +23 +23 комфорт 1021.5 997.7 +25.6
03 20.06 СВ 2 20 км 4/0
[Ci]
+18.2 +12.3 68 +19 +19 1021.7 997.9
06 20.06 СВ 3 20 км ясно +17.2 +11.1 67 +17 +17 1020.8 996.9
09 20.06 СВ 3 20 км ясно +15.4 +9.1 66 +15 +15 1021.3 997.2
12 20.06 В 4 20 км 5/0
[Cs]
+16.2 +11.8 75 +15 +16 1021.9 997.9 +14.0
15 20.06 СВ 3 20 км 4/0
[Ci]
+22.2 +13.2 57 +25 +32 комфорт 1022.2 998.7
18 20.06 СВ 2 20 км ясно +26.8 +11.4 38 +28 +34 жарко 1020.0 996.9
21 20.06 В 1 20 км ясно +25.2 +18.3 66 +30 +30 душно 1018.7 995.4
00 21.06 В 2 20 км 3/0
[Cs]
+20.4 +12.8 62 +23 +23 комфорт 1017.6 994.0 +27.2
03 21.06 В 2 20 км ясно +19.0 +13.9 72 +21 +21 комфорт 1017.4 993.8
06 21.06 В 2 20 км ясно +19.0 +13.7 71 +21 +21 комфорт 1017.6 993.8
09 21.06 СВ 2 20 км ясно +18.6 +14.1 75 +20 +20 1016.8 993.2
12 21.06 СВ 3 20 км 5/0
[Ac cast Cs]
+20.0 +16.4 80 +23 +24 комфорт 1018.0 994.3 +16.2
15 21.06 СВ 3 20 км 6/3 1200 м
[Cu hum Ac cast Cs]
+24.2 +15.6 59 +27 +32 жарко 1018.4 995.1
18 21.06 СВ 3 20 км 8/3 1000 м
[Sc diur, vesp Ac cast Cs]
+27.0 +15.2 48 +30 +32 душно 1017.2 994.2
21 21.06 штиль 0 20 км 5/0
[Ac trans Cs]
+25.6 +14.9 52 +28 +28 жарко 1016.9 993.8
00 22.06 Ю 1 20 км 4/0
[Ci]
+21.6 +17.5 77 +26 +26 душно 1018.8 995.2 +27.6
03 22.06 штиль 0 20 км 4/0
[Ac cast]
+19.8 +16.2 80 +22 +22 комфорт 1018.6 994.8
06 22.06 Ю 1 20 км 3/0
[Ac cast]
+17.4 +15.0 86 +18 +18 1018.6 994.8
09 22.06 ЮВ 1 20 км 3/0
[Ac cast]
+15.8 +12.5 81 +16 +16 1018.1 994.2
12 22.06 ЮВ 1 15 км дымка 4/0
[Ac trans]
+16.8 +15.1 90 +18 +19 1019.7 995.8 +15.6
15 22.06 В 3 20 км 6/0
[Cs]
+21.6 +17.2 76 +26 +32 душно 1017.6 994.2
18 22.06 СВ 3 20 км 9/0
[Cs]
+26.6 +15.8 52 +30 +34 душно 1014.3 992.3
00 23.06 СВ 2 20 км 4/0
[Ac cast]
+21.6 +17.5 77 +26 +26 душно 1013.9 990.5 +27.8

 

Местоположение метеостанции Encarnacion (Парагвай): широта -27.31 долгота -55.83 высота над уровнем моря 91 м.

В архиве по умолчанию представлена погода в Encarnacion за последнюю неделю. Архивные данные за месяц целиком и за предыдущие месяцы, начиная с января 2011 года, Вы можете получить, выбрав интересующий диапазон дат из раскрывающегося списка и нажав кнопку "Ввод!".


*Определитесь, кто Вы:
робот инопланетянин человек

Внимание! Время в таблицах - всемирное. Для получения местного времени необходимо прибавить поправку, которая в Encarnacion равна -4 ч.

Смотрите также архив погоды в соседних городах и на ближайших метеорологических станциях:

Погода в Posadas (Аргентина) (14 км)
Погода в Capitan Meza (Парагвай) (75 км)
Погода в Caazapa (Парагвай) (136 км)
Погода в Sao Luiz Gonzaga (Бразилия) (146 км)
Погода в Santa Rosa (Бразилия) (147 км)
Погода в San Juan Bautista Misiones (Парагвай) (149 км)
Погода в Sao Luiz Gonzaga (Бразилия) (150 км)
Погода в Sao Borja (Бразилия) (150 км)
Погода в Quyquyhat (Парагвай) (167 км)
Погода в Villarrica (Парагвай) (183 км)

Пояснения к столбцам:

Ветер - указаны скорость ветра в м/с - средняя за 10 мин, порывы в срок и между сроками (в фигурных скобках) и направление, откуда дует ветер: С - северный, СВ - северо-восточный, В - восточный, ЮВ - юго-восточный, Ю - южный, ЮЗ - юго-западный, З - западный, СЗ - северо-западный.
Видимость - горизонтальная дальность видимости в метрах или километрах. При видимости от 1 до 10 км при отсутствии осадков обычно наблюдается дымка, при ухудшении видимости до 1 км и менее - туман. В сухую погоду видимость может ухудшаться дымом, пылью или мглою.
Явления - указаны атмосферные явления, наблюдавшиеся в срок или в последний час перед сроком; фигурными скобками обозначены явления, наблюдавшиеся между сроками (за 1-3 часа до срока); квадратными скобками обозначены град или гололедные отложения с указанием их диаметра в мм.
Облачность - указаны через наклонную черту общая и нижняя облачность в баллах и высота нижней границы облаков в метрах; квадратными скобками обозначены формы облаков: Ci - перистые, Cs - перисто-слоистые, Cc - перисто-кучевые, Ac - высококучевые, As - высокослоистые, Sc - слоисто-кучевые, Ns - слоисто-дождевые, Cu - кучевые, Cb - кучево-дождевые. Подробнее классификацию облаков см. в Атласе облаков (PDF).
T - Температура воздуха - температура, измеренная на высоте 2 м над землей.
Td - Температура точки росы - температура, при понижении до которой содержащийся в воздухе водяной пар достигнет насыщения.
f - Относительная влажность воздуха - влажноcть воздуха, измеренная на высоте 2 м над землей.
Te - Эффективная температура - температура, которую ощущает одетый по сезону человек в тени. Характеристика душности погоды. При расчете учитывается влияние влажности воздуха и скорости ветра на теплоощущения человека.
Tes - Эффективная температура на солнце - температура, которую ощущает человек, с поправкой на солнечный нагрев. Характеристика знойности погоды. Зависит от высоты солнца над горизонтом, облачности и скорости ветра. Ночью, в пасмурную погоду, а также при ветре 12 м/с и более поправка равна нулю.
P - Атмосферное давление - приведенное к уровню моря атмосферное давление.
Po - Атмосферное давление - измеренное на уровне метеостанции атмосферное давление.
Tmin - Минимальная температура - минимум температуры воздуха на высоте 2 м над землей.
Tmax - Максимальная температура - максимум температуры воздуха на высоте 2 м над землей.
R - Количество осадков - Количество выпавших осадков за период времени, мм. При наведении курсора мыши на число - период времени, за который выпало указанное количество осадков.
R24 - Количество осадков - Количество выпавших осадков за 24 часа, мм.
S - Снежный покров - Высота снежного покрова, см. При наведении курсора мыши на число - состояние снежного покрова и степень покрытия местности в баллах.